Regional Weather Roundup
Issued by NWS

Home | Current Version | Previous Version | Graphics & Text | Print | Product List | Glossary On
Versions: 1 2 3 4 5 6 7 8 9 10 11 12 13 14 15 16 17 18 19 20 21 22 23 24 25 26 27 28 29 30 31 32 33 34 35 36 37 38 39 40 41 42 43 44 45 46 47 48 49 50
000
ASUS43 KLOT 251710
RWRIL

ILLINOIS REGIONAL WEATHER ROUNDUP
NATIONAL WEATHER SERVICE CHICAGO/ROMEOVILLE IL
1200 PM CDT FRI JUL 25 2014

NOTE: "FAIR" INDICATES FEW OR NO CLOUDS BELOW 12,000 FEET WITH NO
SIGNIFICANT WEATHER AND/OR OBSTRUCTIONS TO VISIBILITY.

* THESE STATIONS ARE NOT UNDER NWS QUALITY CONTROL. THEY ALSO MAY NOT
  REPORT WEATHER SUCH AS PRECIPITATION OR FOG.

ILZ001-002-007-009-015-016-024-251800-
NORTHWEST ILLINOIS

CITY           SKY/WX    TMP DP  RH WIND       PRES   REMARKS
MOLINE         CLOUDY    64  63  96 S12G24    29.91F
STERLING*      CLOUDY    64  61  88 S9        29.95F
SAVANNA*       CLOUDY    64  60  89 S13       29.85F
$$

ILZ003-004-008-010-011-017-018-251800-
NORTH CENTRAL ILLINOIS

CITY           SKY/WX    TMP DP  RH WIND       PRES   REMARKS
ROCKFORD       CLOUDY    70  57  63 S21G28    29.96F
FREEPORT*      CLOUDY    62  57  84 S18G30    29.90F
ROCHELLE*      CLOUDY    68  59  72 S16       30.00F
DE KALB*       CLOUDY    64  59  83 SW13      30.02F
PERU*          LGT RAIN  65  60  84 W12       30.06R
$$

ILZ005-006-012>014-019>023-251800-
NORTHEAST ILLINOIS

CITY           SKY/WX    TMP DP  RH WIND       PRES   REMARKS
CHICAGO-OHARE  CLOUDY    72  55  55 S15G25    29.98F
CHICAGO-MIDWAY CLOUDY    74  59  59 S13       30.00F
AURORA         CLOUDY    68  58  70 SW12      30.01F
LANSING*       CLOUDY    72  55  56 SW14G20   30.02S
JOLIET*        CLOUDY    69  57  64 S8        30.01F
WAUKEGAN       PTSUNNY   73  55  53 S21       29.97F
DUPAGE AIRPORT CLOUDY    69  58  67 SW13      29.99F
KANKAKEE*      CLOUDY    69  60  71 S9        30.04F
WHEELING       PTSUNNY   73  56  54 SW13G23   30.00F
MORRIS*        CLOUDY    70  60  70 S9        30.01F
ROMEOVILLE*    CLOUDY    68  56  65 SW12      30.00F
$$

LMZ740>746-251800-
SOUTHERN LAKE MICHIGAN

STATION/POSITION SKY/WX   TEMP    WIND        PRES    VSBY  WAVE
                          AIR SEA DIR/SP/G                  HT/PER
                          (F)     (DEG/KT/KT) (MB)    (MI)  (FT/S)
SOUTHERN BUOY              63 61  170/ 12/ 14 1015.3F         1/ 3
WAUKEGAN HARBOR            69     160/ 13/ 15   N/A
HARRISON CRIB              69     190/ 20/ 22   N/A
CALUMET HARBOR             71     180/  8/ 17 1014.8F
BURNS HARBOR               74     190/ 13/ 16 1016.9S
MICHIGAN CITY              70     160/  8/ 12   N/A
MICHIGAN CITY 6N           69 68  170/  6/  8   N/A           1/ 2
ST. JOSEPH                 66 64  170/  6/  8   N/A           1/ 3
$$

ILZ025>027-034>036-040-047-049-050-058-095>099-251800-
WEST-CENTRAL ILLINOIS

CITY           SKY/WX    TMP DP  RH WIND       PRES   REMARKS
QUINCY         RAIN      63  60  90 NE9       30.04R FOG
GALESBURG*     RAIN      61  60  96 S7        29.98F
MACOMB*        RAIN      60  60 100 NW3       30.10R
JACKSONVILLE*  RAIN      65  63  93 NW5       30.08R
PITTSFIELD*    TSTM      64  60  88 W5        30.08R
$$

ILZ028>032-037-038-041>044-048-051>054-059>061-251800-
CENTRAL ILLINOIS

CITY           SKY/WX    TMP DP  RH WIND       PRES   REMARKS
PONTIAC        CLOUDY    68  63  83 SW7       30.05R
DECATUR        LGT RAIN  65  61  87 S6        30.05F
PEORIA         RAIN      63  59  87 SW8       30.06R FOG
LACON*         LGT RAIN  63  59  88 SW7       30.04R
LINCOLN*       RAIN      64  61  91 SW3       30.05R
SPRINGFIELD    RAIN      65  61  87 SE6       30.02F FOG
TAYLORVILLE    LGT RAIN  64  61  88 CALM      30.06R
$$

ILZ033-039-045-046-055>057-062-063-251800-
EAST-CENTRAL ILLINOIS

CITY           SKY/WX    TMP DP  RH WIND       PRES   REMARKS
CHAMPAIGN      CLOUDY    68  60  75 S7        30.06S
DANVILLE*      CLOUDY    69  58  68 S7        30.04S
RANTOUL*       CLOUDY    70  58  67 S8        30.06R
MATTOON        CLOUDY    68  59  73 S7        30.05F
PARIS*         CLOUDY    70  61  72 S6        30.07F
$$

ILZ079-100>102-251800-
SOUTHWEST ILLINOIS

CITY           SKY/WX    TMP DP  RH WIND       PRES   REMARKS
ALTON          PTSUNNY   70  64  83 SE5       30.06S
CAHOKIA*       CLOUDY    73  61  65 S6        30.05S
SPARTA*        CLOUDY    73  59  60 S7        30.08R
$$

ILZ064>066-069>071-074>076-080>082-084>086-088>090-092>094-251800-
SOUTH-CENTRAL ILLINOIS

CITY           SKY/WX    TMP DP  RH WIND       PRES   REMARKS
CARBONDALE     PTSUNNY   78  58  49 SE6       30.05F
CAIRO*         SUNNY     80  57  46 S3        30.05F HX  80
EFFINGHAM*     CLOUDY    71  57  62 S3        30.06F
MARION         PTSUNNY   79  57  47 S6        30.07F HX  80
MT. VERNON     PTSUNNY   79  59  50 S6        30.07F HX  80
CENTRALIA*     CLOUDY    82  58  43 SW7       30.06F HX  82
SALEM*         CLOUDY    77  60  55 S9        30.06F
METROPOLIS*    SUNNY     79  52  39 SE3       30.04F
$$

ILZ067-068-072-073-078-083-087-091-251800-
SOUTHEAST ILLINOIS

CITY           SKY/WX    TMP DP  RH WIND       PRES   REMARKS
LAWRENCEVILLE  CLOUDY    75  57  53 S3        30.07F
FLORA*         CLOUDY    73  58  59 S6        30.06F
FAIRFIELD*     PTSUNNY   75  63  64 SW3       30.06F
HARRISBURG*    SUNNY     77  57  51 CALM      30.07F
ROBINSON*      CLOUDY    75  61  61 SW5       30.08F
CARMI*         PTSUNNY   79  63  57 E3        30.05F HX  80
$$

ABBREVIATIONS USED IN REMARKS
   TC - TEMPERATURE IN CELSIUS
  WCI - WIND CHILL INDEX
   HX - HEAT INDEX
  VSB - VISIBILITY
$$



USA.gov is the U.S. government's official web portal to all federal, state and local government web resources and services.